CW4352 Weather Reports


time (UTC)temp
C
wind
direction
speed
KPH
gust
KPH
rain 1hr
cm
rain 24hr
cm
rain mn
cm
humidity
%
barometer
mb
20260502164205 22 34 1.6 4.8 0.00 0.00 0.00 31 1015.4
20260502163204 22 34 1.6 4.8 0.00 0.00 0.00 31 1015.4
20260502161205 23 34 1.6 4.8 0.00 0.00 0.00 28 1015.7
20260502151705 23 34 3.2 4.8 0.00 0.00 0.00 29 1016.4
20260502151204 23 34 0.0 4.8 0.00 0.00 0.00 30 1016.4
20260502130705 22 1 4.8 9.7 0.00 0.00 0.00 33 1018.0
20260502130205 22 13 3.2 4.8 0.00 0.00 0.00 33 1018.0
20260502123205 22 15 1.6 4.8 0.00 0.00 0.00 34 1018.0
20260502120705 21 21 1.6 4.8 0.00 0.00 0.00 36 1018.5
20260502111704 21 16 3.2 8.0 0.00 0.00 0.00 36 1019.0
20260502110705 21 24 3.2 4.8 0.00 0.00 0.00 32 1020.2
20260502110204 21 32 3.2 8.0 0.00 0.00 0.00 35 1020.2
20260502104705 21 355 3.2 4.8 0.00 0.00 0.00 31 1020.2
20260502103704 20 355 0.0 4.8 0.00 0.00 0.00 32 1020.2
20260502100704 20 28 3.2 4.8 0.00 0.00 0.00 33 1020.2
20260502091204 19 22 1.6 4.8 0.00 0.00 0.00 37 1020.5
20260502090205 18 18 1.6 4.8 0.00 0.00 0.00 36 1020.5
20260502070205 15 300 0.0 3.2 0.00 0.00 0.00 51 1020.6
20260502064204 13 300 0.0 1.6 0.00 0.00 0.00 52 1020.6
20260502063205 13 300 0.0 3.2 0.00 0.00 0.00 54 1020.6
20260502060704 11 300 1.6 4.8 0.00 0.00 0.00 56 1020.8
20260502053205 10 300 1.6 4.8 0.00 0.00 0.00 57 1020.8
20260502051204 9 300 0.0 4.8 0.00 0.00 0.00 53 1020.6
20260502050205 9 300 4.8 9.7 0.00 0.00 0.00 53 1020.6
20260502043705 8 300 3.2 4.8 0.00 0.00 0.00 53 1020.6
20260502041704 8 300 1.6 4.8 0.00 0.00 0.00 54 1020.6
20260502034704 8 300 3.2 9.7 0.00 0.00 0.00 54 1020.6
20260502033704 8 300 0.0 3.2 0.00 0.00 0.00 55 1020.5
20260502033204 7 300 0.0 4.8 0.00 0.00 0.00 56 1020.7
20260502031704 7 300 1.6 4.8 0.00 0.00 0.00 57 1020.7
20260502031204 7 300 1.6 4.8 0.00 0.00 0.00 57 1020.7
20260502030204 8 300 0.0 3.2 0.00 0.00 0.00 56 1020.7
20260502024705 8 300 0.0 1.6 0.00 0.00 0.00 56 1020.7
20260502023704 8 300 1.6 3.2 0.00 0.00 0.00 56 1020.7
20260502021204 8 300 1.6 4.8 0.00 0.00 0.00 54 1020.7
20260502014204 8 300 0.0 4.8 0.00 0.00 0.00 56 1020.7
20260502013204 8 300 1.6 4.8 0.00 0.00 0.00 58 1020.7
20260502011204 8 300 0.0 3.2 0.00 0.00 0.00 57 1020.7
20260502004704 8 300 1.6 4.8 0.00 0.00 0.00 53 1020.7
20260502003204 9 300 3.2 9.7 0.00 0.00 0.00 53 1021.0
20260501234704 9 300 0.0 3.2 0.00 0.00 0.00 54 1021.1
20260501231705 10 300 1.6 4.8 0.00 0.00 0.00 52 1021.1
20260501224704 10 306 1.6 4.8 0.00 0.00 0.00 51 1021.1
20260501223204 10 40 3.2 4.8 0.00 0.00 0.00 52 1021.1
20260501220705 10 40 0.0 3.2 0.00 0.00 0.00 49 1021.1
20260501214703 10 40 0.0 3.2 0.00 0.00 0.00 50 1021.0
20260501213204 10 40 1.6 8.0 0.00 0.00 0.00 49 1021.0
20260501211704 10 42 1.6 4.8 0.00 0.00 0.00 51 1020.8
20260501210704 10 42 1.6 4.8 0.00 0.00 0.00 51 1020.6
20260501210204 10 42 1.6 4.8 0.00 0.00 0.00 51 1020.6
20260501201204 11 42 0.0 3.2 0.00 0.00 0.00 47 1020.5
20260501194703 11 42 0.0 0.0 0.00 0.00 0.00 47 1020.4
20260501194203 11 42 0.0 1.6 0.00 0.00 0.00 47 1020.2
20260501193704 11 42 0.0 3.2 0.00 0.00 0.00 46 1020.2
20260501193204 11 42 0.0 0.0 0.00 0.00 0.00 45 1020.2
20260501191204 11 42 0.0 3.2 0.00 0.00 0.00 44 1019.7
20260501190204 12 42 0.0 0.0 0.00 0.00 0.00 43 1019.7
20260501184703 13 42 0.0 0.0 0.00 0.00 0.00 41 1019.7
20260501184204 13 42 0.0 0.0 0.00 0.00 0.00 40 1019.7
20260501183704 13 42 0.0 0.0 0.00 0.00 0.00 38 1019.7
20260501183203 14 42 0.0 0.0 0.00 0.00 0.00 37 1019.7
20260501181704 16 42 0.0 1.6 0.00 0.00 0.00 37 1019.5
20260501181203 17 42 0.0 1.6 0.00 0.00 0.00 36 1019.5
20260501180204 17 42 0.0 0.0 0.00 0.00 0.00 31 1019.5